TimeEST,TemperatureF,Dew PointF,Humidity,Sea Level PressureIn,VisibilityMPH,Wind Direction,Wind SpeedMPH,Gust SpeedMPH,PrecipitationIn,Events,Conditions,WindDirDegrees,DateUTC
12:56 AM,21.9,8.1,55,30.22,10.0,West,16.1,23.0,N/A,,Clear,280,2013-02-02 05:56:00
1:56 AM,21.0,8.1,57,30.23,10.0,West,12.7,20.7,N/A,,Clear,270,2013-02-02 06:56:00
2:56 AM,21.0,9.0,60,30.23,10.0,West,3.5,-,N/A,,Clear,270,2013-02-02 07:56:00
3:56 AM,19.9,7.0,57,30.25,10.0,West,8.1,-,N/A,,Clear,260,2013-02-02 08:56:00
4:56 AM,19.0,6.1,57,30.26,10.0,West,10.4,-,N/A,,Clear,280,2013-02-02 09:56:00
5:56 AM,18.0,6.1,60,30.25,10.0,West,8.1,-,N/A,,Clear,260,2013-02-02 10:56:00
6:56 AM,17.1,6.1,62,30.27,10.0,West,5.8,-,N/A,,Clear,270,2013-02-02 11:56:00
7:56 AM,18.0,6.1,60,30.30,10.0,SW,3.5,-,N/A,,Clear,230,2013-02-02 12:56:00
8:56 AM,19.9,5.0,52,30.29,10.0,West,8.1,-,N/A,,Clear,280,2013-02-02 13:56:00
9:56 AM,21.0,5.0,50,30.27,10.0,SW,5.8,-,N/A,,Clear,230,2013-02-02 14:56:00
10:56 AM,24.1,6.1,46,30.25,10.0,SSW,6.9,-,N/A,,Clear,200,2013-02-02 15:56:00
11:56 AM,26.1,6.1,43,30.21,10.0,South,8.1,-,N/A,,Clear,190,2013-02-02 16:56:00
12:56 PM,28.0,1.9,33,30.17,10.0,SW,11.5,18.4,N/A,,Clear,230,2013-02-02 17:56:00
1:56 PM,28.0,1.9,33,30.14,10.0,WSW,11.5,20.7,N/A,,Scattered Clouds,240,2013-02-02 18:56:00
2:56 PM,27.0,1.0,33,30.13,10.0,SW,9.2,17.3,N/A,,Mostly Cloudy,230,2013-02-02 19:56:00
3:56 PM,27.0,3.0,36,30.11,10.0,WSW,9.2,-,N/A,,Scattered Clouds,250,2013-02-02 20:56:00
4:56 PM,26.1,5.0,41,30.10,10.0,West,8.1,-,N/A,,Mostly Cloudy,260,2013-02-02 21:56:00
5:56 PM,26.1,6.1,43,30.10,10.0,SW,4.6,-,N/A,,Overcast,220,2013-02-02 22:56:00
6:56 PM,24.8,10.4,54,30.06,10.0,West,8.1,-,N/A,,Overcast,270,2013-02-02 23:56:00
7:56 PM,23.0,16.0,74,30.10,3.0,WNW,6.9,-,0.00,Snow,Light Snow,300,2013-02-03 00:56:00
8:56 PM,21.9,17.1,82,30.10,3.0,WNW,9.2,-,0.00,Snow,Light Snow,300,2013-02-03 01:56:00
9:03 PM,21.2,17.6,86,30.06,2.0,West,6.9,-,0.00,Snow,Light Snow,280,2013-02-03 02:03:00
9:56 PM,21.9,17.1,82,30.10,2.0,West,5.8,-,0.00,Snow,Light Snow,280,2013-02-03 02:56:00
10:18 PM,21.2,17.6,86,30.06,1.0,West,3.5,-,0.00,Snow,Light Snow,260,2013-02-03 03:18:00
10:56 PM,21.9,18.0,85,30.09,1.0,Calm,Calm,-,0.00,Snow,Light Snow,0,2013-02-03 03:56:00
11:18 PM,21.2,17.6,86,30.05,2.0,Calm,Calm,-,0.00,Snow,Light Snow,0,2013-02-03 04:18:00
11:31 PM,21.2,17.6,86,30.04,2.0,Calm,Calm,-,0.01,Snow,Light Snow,0,2013-02-03 04:31:00
11:38 PM,21.2,17.6,86,30.04,2.0,Calm,Calm,-,0.01,Snow,Light Snow,0,2013-02-03 04:38:00
11:56 PM,21.9,18.0,85,30.07,2.0,Calm,Calm,-,0.01,Snow,Light Snow,0,2013-02-03 04:56:00